Location: Casteau
(50.5142°N, 4.0161°E)
Time: 03:40:00
(UTC+00:00)

Transit 2A - Pass Details

Date: 28 July 2021
Orbit: 594 x 964 km, 66.7° (Epoch: 21 September)

Event Time Altitude Azimuth Distance (km) Brightness Sun altitude
Rises 09:13:57 0° 265° (W) 2,888 8.7 45.8°
Reaches altitude 10° 09:16:39 10° 282° (WNW) 2,025 7.9 46.1°
Maximum altitude 09:20:06 21° 332° (NNW) 1,496 7.4 46.6°
Drops below altitude 10° 09:23:48 10° 21° (NNE) 2,173 8.4 47.1°
Sets 09:26:49 0° 38° (NE) 3,169 9.2 47.5°
